This demonstration page uses our WeatherBlox Daily Observations layout. Learn more.

Left ArrowRight Arrow

44.89941, -97.11507

Hourly Observations for May 21, 2022

Temp ( °F °C ) Dew Point ( °F °C ) Humidity (%) Winds ( mph kmh ) Pressure ( in mb ) Visibility ( mi km ) Precip ( " mm )
12:31 am 00:31 Cloudy 42 5.6 37 2.8 82 82 NW 14 22 30.00 1016 10 16 0.00 0.00
12:53 am 00:53 Cloudy 41 5 37 2.8 86 86 NW 14 22 29.98 1015 10 16 0.00 0.00
1:53 am 01:53 Cloudy 41 5 37 2.8 86 86 NNW 15 24 30.01 1016 10 16 0.00 0.00
2:12 am 02:12 Cloudy 41 5 36 2.2 82 82 NNW 12 19 30.02 1017 10 16 0.00 0.00
2:53 am 02:53 Cloudy 41 5 36 2.2 82 82 NW 12 19 30.01 1016 10 16 0.00 0.00
3:53 am 03:53 Cloudy with Light Rain 39 3.9 36 2.2 89 89 NNW 14 22 30.03 1017 9 14 0.00 0.00
4:53 am 04:53 Cloudy 40 4.4 36 2.2 86 86 NW 9 15 30.04 1017 10 16 0.00 0.00
5:53 am 05:53 Cloudy 40 4.4 35 1.7 83 83 NW 17 28 30.06 1018 10 16 0.00 0.00
6:53 am 06:53 Mostly Cloudy 39 3.9 35 1.7 86 86 NNW 10 17 30.09 1019 10 16 0.00 0.00
7:53 am 07:53 Partly Cloudy 41 5 36 2.2 82 82 NW 8 13 30.11 1020 10 16 0.00 0.00
8:18 am 08:18 Mostly Cloudy 41 5 36 2.2 82 82 WNW 7 11 30.14 1021 10 16 0.00 0.00
8:25 am 08:25 Mostly Cloudy 42 5.6 37 2.8 82 82 NW 7 11 30.13 1020 10 16 0.00 0.00
8:51 am 08:51 Partly Cloudy 43 6 36 2 76 76 NW 6 9 30.13 1020 10 16 0.00 0.00
8:53 am 08:53 Partly Cloudy 43 6.1 36 2.2 76 76 WNW 5 7 30.13 1020 10 16 0.00 0.00
9:53 am 09:53 Cloudy 44 6.7 35 1.7 71 71 W 8 13 30.14 1021 10 16 0.00 0.00
10:53 am 10:53 Cloudy 45 7.2 36 2.2 71 71 W 12 19 30.15 1021 10 16 0.00 0.00
11:22 am 11:22 Cloudy 44 6.7 36 2.2 73 73 WSW 10 17 30.16 1021 10 16 0.00 0.00
11:43 am 11:43 Cloudy 44 6.7 35 1.7 71 71 W 9 15 30.16 1021 10 16 0.00 0.00
11:53 am 11:53 Cloudy 44 6.7 35 1.7 71 71 W 8 13 30.16 1022 10 16 0.00 0.00
12:53 pm 12:53 Cloudy 45 7.2 36 2.2 71 71 NW 14 22 30.17 1022 10 16 0.00 0.00
1:53 pm 13:53 Cloudy 45 7.2 35 1.7 68 68 NW 13 20 30.18 1022 10 16 0.00 0.00
2:53 pm 14:53 Cloudy 46 7.8 36 2.2 68 68 N 10 17 30.17 1022 10 16 0.00 0.00
3:53 pm 15:53 Cloudy 46 7.8 36 2.2 68 68 NNE 12 19 30.18 1022 10 16 0.00 0.00
4:53 pm 16:53 Cloudy 47 8.3 33 0.6 59 59 NW 7 11 30.18 1022 10 16 0.00 0.00
5:53 pm 17:53 Cloudy 45 7.2 35 1.7 68 68 WNW 10 17 30.19 1022 10 16 0.00 0.00
6:53 pm 18:53 Cloudy 45 7.2 35 1.7 68 68 W 9 15 30.20 1023 10 16 0.00 0.00
7:53 pm 19:53 Cloudy with Light Rain 42 5.6 36 2.2 79 79 NW 14 22 30.23 1024 10 16 0.00 0.00
8:53 pm 20:53 Cloudy 41 5 37 2.8 86 86 NNW 3 6 30.23 1024 10 16 0.01 0.25
9:53 pm 21:53 Cloudy 42 5.6 38 3.3 85 85 W 5 7 30.25 1024 10 16 0.00 0.00
10:53 pm 22:53 Mostly Cloudy 42 5.6 36 2.2 79 79 NW 9 15 30.27 1025 10 16 0.00 0.00
11:53 pm 23:53 Clear 39 3.9 35 1.7 86 86 NW 6 9 30.28 1025 10 16 0.00 0.00

Powered by AerisWeather